Regional Weather Roundup
Issued by NWS

Home | Current Version | Previous Version | Text Only | Print | Product List | Glossary On
Versions: 1 2 3 4 5 6 7 8 9 10 11 12 13 14 15 16 17 18 19 20 21 22 23 24 25 26 27 28 29 30 31 32 33 34 35 36 37 38 39 40 41 42 43 44 45 46 47 48 49 50
000
ASUS43 KMKX 011021
RWRWI

WISCONSIN REGIONAL WEATHER ROUNDUP
NATIONAL WEATHER SERVICE MILWAUKEE/SULLIVAN WI
500 AM CDT SAT NOV 01 2014

NOTE: "FAIR" INDICATES FEW OR NO CLOUDS BELOW 12,000 FEET WITH NO
SIGNIFICANT WEATHER AND/OR OBSTRUCTIONS TO VISIBILITY.

WIZ001-002-006>008-014>016-023>028-011100-
NORTHWEST WISCONSIN

CITY           SKY/WX    TMP DP  RH WIND       PRES   REMARKS
SUPERIOR ARPT  CLEAR     17  15  93 S3        30.46S
ASHLAND        CLEAR     17  15  92 S3        30.48S
HAYWARD        CLEAR     18  14  84 CALM      30.45S
SIREN          CLEAR     22  19  88 S5        30.45S WCI  16
CUMBERLAND     CLEAR     21  19  93 CALM      30.45S
RICE LAKE      CLEAR     18  16  92 CALM      30.48S
CHETEK         CLEAR     18  16  93 CALM      30.47R
LADYSMITH      CLEAR     19  18  93 CALM      30.47S
EAU CLAIRE     PTCLDY    18  15  88 CALM      30.47S FOG
MENOMONIE      CLEAR     21  19  90 CALM      30.48R
NEW RICHMOND   CLEAR     21  17  84 CALM      30.46S
OSCEOLA        CLEAR     18  17  95 CALM      30.48F
$$

WIZ003>005-009-010-017-018-011100-
NORTH CENTRAL WISCONSIN

CITY           SKY/WX    TMP DP  RH WIND       PRES   REMARKS
MANITOWISH WTR MOCLDY    10   8  92 CALM      30.43S FOG
ARBOR VITAE    CLEAR     17  15  91 CALM      30.43S
WOODRUFF       CLEAR     17  15  91 CALM      30.43S
RHINELANDER    CLEAR     16  14  92 CALM      30.44R
EAGLE RIVER    CLEAR     14  12  94 CALM      30.43S
LAND O LAKES   PTCLDY    13  11  92 CALM      30.43F
PHILLIPS       CLEAR     15  13  92 CALM      30.44S
TOMAHAWK       CLEAR     13  11  91 CALM      30.45R
MEDFORD        CLEAR     18  17  94 CALM      30.44S
MERRILL        CLEAR     17  15  94 CALM      30.46R
$$

WIZ029-030-035-036-043>047-011100-
CENTRAL WISCONSIN

CITY           SKY/WX    TMP DP  RH WIND       PRES   REMARKS
WAUSAU         CLEAR     23  19  85 N3        30.45R
MOSINEE        CLEAR     23  19  86 N3        30.47R
MARSHFIELD     CLEAR     23  18  81 CALM      30.45S
STEVENS POINT  CLEAR     17  14  89 CALM      30.47R
WAUPACA        CLEAR     25  19  78 NW5       30.46S WCI  19
WAUTOMA        CLEAR     18  15  88 CALM      30.47R
WISC RAPIDS    CLEAR     20  16  84 CALM      30.48R
CAMP DOUGLAS   CLEAR     14  14  98 W5        30.47S WCI   6
$$

WIZ011>013-019>022-031-037>040-048>050-011100-
NORTHEAST WISCONSIN

CITY           SKY/WX    TMP DP  RH WIND       PRES   REMARKS
ANTIGO         CLEAR     20  19  95 CALM      30.44R
SHAWANO        CLEAR     27  19  72 NW5       30.47R WCI  22
OCONTO         PTCLDY    29  21  71 NW5       30.45R WCI  24
STURGEON BAY   CLOUDY    34  23  64 NE14      30.44R WCI  24
GREEN BAY      CLOUDY    31  21  66 NW12      30.45R WCI  22
MANITOWOC      CLOUDY    34  25  69 N10       30.43R WCI  26
APPLETON       CLEAR     27  19  74 NW9       30.46R WCI  17
CLINTONVILLE   CLEAR     27  19  74 CALM      30.47R
OSHKOSH        CLOUDY    30  20  66 N10       30.45R WCI  21
$$

WIZ032>034-041-042-053>061-011100-
SOUTHWEST WISCONSIN

CITY           SKY/WX    TMP DP  RH WIND       PRES   REMARKS
LA CROSSE      CLEAR     25  19  78 E3        30.49S
SPARTA         CLEAR     15  13  92 CALM      30.49R
VIROQUA        CLEAR     22  20  92 CALM      30.45S
BOSCOBEL       CLEAR     19  15  84 CALM      30.50R
PRAIRIE DU CHI CLEAR     23  19  85 CALM      30.49S
PLATTEVILLE    CLEAR     22  18  83 N3        30.47S
$$

WIZ056-057-062-063-064-067-068-011100-
SOUTH CENTRAL WISCONSIN

CITY           SKY/WX    TMP DP  RH WIND       PRES   REMARKS
REEDSBURG      CLEAR     22  19  88 CALM      30.46S
BARABOO/DELLS  CLEAR     21  17  85 CALM      30.46R
LONE ROCK      CLEAR     25  17  72 W7        30.48R WCI  17
MINERAL POINT  CLEAR     25  19  80 CALM      30.45R
MADISON        CLEAR     24  17  74 NW6       30.45R WCI  17
MIDDLETON      CLEAR     25  19  77 CALM      30.45S
WATERTOWN      MOCLDY    30  22  70 N7        30.42S WCI  23
MONROE         CLEAR     27  19  74 N7        30.43R WCI  19
JANESVILLE     MOCLDY    28  21  74 NW7       30.43R WCI  21
$$

WIZ051-052-058>065-066-070>072-011100-
SOUTHEAST WISCONSIN

CITY           SKY/WX    TMP DP  RH WIND       PRES   REMARKS
MILWAUKEE      CLOUDY    35  22  58 NW9G18    30.40R WCI  28
WAUKESHA       CLOUDY    32  21  64 N8        30.42R WCI  25
MILWAUKEE/TIMM CLOUDY    34  21  60 N10       30.42R WCI  26
RACINE         CLOUDY    37  25  61 N12G24    30.40R WCI  29
BURLINGTON     CLOUDY    32  21  64 N13       30.40R WCI  23
KENOSHA        CLOUDY    35  23  61 N12       30.39R WCI  27
FOND DU LAC    CLOUDY    32  20  61 N10       30.44R WCI  24
SHEBOYGAN      CLOUDY    33  23  66 NW12      30.42R WCI  24
WEST BEND      CLOUDY    32  21  64 N8        30.42R WCI  25
JUNEAU         CLOUDY    31  21  68 N7        30.44S WCI  24
$$

LSZ147-162-011100-
LAKE SUPERIOR

STATION/POSITION TIME  TEMP    WIND        PRES    WAVE
                       AIR SEA DIR/SP/G            HT/PER
                 (UTC) (F)     (DEG/KT/KT) (MB)    (FT/S)
W MID LAKE BUOY  0950   36 43  230/  4/  6 1032.0F   1/ 5
DEVILS ISLAND    1000   35     200/  7/  9 1032.1F
PORT WING        0940   27     150/  3/  6 1031.5S
SAXON HARBOR     0900   24     180/  4/  6 1031.5
$$

LMZ867-665-643>646-011100-
LAKE MICHIGAN

STATION/POSITION TIME  TEMP    WIND        PRES    WAVE
                       AIR SEA DIR/SP/G            HT/PER
                 (UTC) (F)     (DEG/KT/KT) (MB)    (FT/S)
CHAMBERS ISLAND  0900   36     320/ 17/ 21 1030.5R
N MID LAKE BUOY  0950   35 47   10/ 16/ 17 1030.7R   3/ 4
NORTHPORT PIER   0900   36      10/ 12/ 19 1030.1R
SISTER BAY       0928           20/  9/ 12   N/A
KEWAUNEE LAKESHO 1000   34     340/  5/  7 1029.4R
SHEBOYGAN LAKESH 1000   36 46  340/ 17/ 21 1030.9R
PORT WASHINGTON  0900   36     340/  7/ 14 1029.8
ATWATER BUOY     1000   39     360/ 21/ 27 1030.0R
MILWAUKEE LAKESH 1000   36     330/ 13/ 18   N/A
S MID LAKE BUOY  0950   37 48   10/ 21/ 27 1028.4R   9/ 8
KENOSHA   LAKESH 1000   37     340/ 17/ 31 1028.4R
$$

TC  - TEMPERATURE IN CELSIUS
VSB - VISIBILITY IN STATUTE MILES
WCI - WIND CHILL INDEX
HX  - HEAT INDEX




USA.gov is the U.S. government's official web portal to all federal, state and local government web resources and services.